CW1663 Weather Reports


time (UTC)temp
C
wind
direction
speed
KPH
gust
KPH
rain 1hr
cm
rain 24hr
cm
rain mn
cm
humidity
%
barometer
mb
20260510112804 12 39 11.3 32.2 0.00 0.00 0.00 75 1014.8
20260510112306 12 38 14.5 35.4 0.00 0.00 0.00 74 1014.8
20260510111304 12 37 11.3 32.2 0.00 0.00 0.00 75 1014.8
20260510105804 11 32 11.3 22.5 0.00 0.00 0.00 76 1014.9
20260510103304 11 30 12.9 29.0 0.00 0.00 0.00 77 1015.2
20260510102806 11 23 11.3 25.7 0.00 0.00 0.00 78 1015.2
20260510101304 11 58 9.7 27.4 0.00 0.00 0.00 78 1015.0
20260510094804 11 61 12.9 33.8 0.00 0.00 0.00 79 1015.0
20260510092805 11 41 11.3 29.0 0.00 0.00 0.00 81 1015.0
20260510092306 11 62 9.7 27.4 0.00 0.00 0.00 83 1015.2
20260510091804 11 12 12.9 27.4 0.00 0.00 0.00 84 1015.2
20260510091304 11 35 14.5 25.7 0.00 0.00 0.00 84 1015.2
20260510085805 10 43 9.7 27.4 0.00 0.00 0.00 86 1015.3
20260510085306 10 39 11.3 22.5 0.00 0.00 0.00 86 1015.3
20260510083304 10 13 11.3 29.0 0.00 0.00 0.00 87 1015.5
20260510081304 10 12 9.7 20.9 0.00 0.00 0.00 87 1015.6
20260510080804 10 28 9.7 24.1 0.00 0.00 0.00 87 1015.6
20260510075805 10 31 9.7 19.3 0.00 0.00 0.00 87 1015.6
20260510075306 10 34 9.7 19.3 0.00 0.00 0.00 87 1015.5
20260510072804 10 35 8.0 19.3 0.00 0.00 0.00 87 1015.7
20260510071804 10 35 12.9 20.9 0.00 0.00 0.00 87 1015.8
20260510071304 10 46 6.4 22.5 0.00 0.00 0.00 87 1015.7
20260510070804 9 42 9.7 24.1 0.00 0.00 0.00 87 1015.7
20260510070304 9 54 11.3 22.5 0.00 0.00 0.00 87 1015.8
20260510065804 9 64 8.0 19.3 0.00 0.00 0.00 87 1015.8
20260510064804 9 56 9.7 20.9 0.00 0.00 0.00 87 1015.8
20260510062804 9 41 11.3 19.3 0.00 0.00 0.00 89 1015.8
20260510060804 8 40 9.7 19.3 0.00 0.00 0.00 89 1015.7
20260510055804 8 55 6.4 19.3 0.00 0.00 0.00 90 1015.7
20260510054304 8 43 8.0 19.3 0.00 0.00 0.00 90 1015.6
20260510053804 8 45 8.0 19.3 0.00 0.00 0.00 90 1015.6
20260510052804 8 39 9.7 19.3 0.00 0.00 0.00 90 1015.6
20260510052306 8 39 9.7 19.3 0.00 0.00 0.00 90 1015.7
20260510050804 8 34 8.0 19.3 0.00 0.00 0.00 90 1015.6
20260510050304 8 27 4.8 19.3 0.00 0.00 0.00 90 1015.7
20260510045804 8 21 9.7 20.9 0.00 0.00 0.00 90 1015.7
20260510045306 8 54 9.7 20.9 0.00 0.00 0.00 90 1015.6
20260510044804 8 44 8.0 19.3 0.00 0.00 0.00 90 1015.6
20260510043804 8 35 9.7 25.7 0.00 0.00 0.00 90 1015.5
20260510043304 8 29 8.0 20.9 0.00 0.00 0.00 90 1015.4
20260510042804 8 28 11.3 24.1 0.00 0.00 0.00 90 1015.4
20260510042306 8 26 9.7 22.5 0.00 0.00 0.00 90 1015.6
20260510041804 8 12 9.7 22.5 0.00 0.00 0.00 90 1015.6
20260510040804 8 30 11.3 25.7 0.00 0.00 0.00 90 1015.6
20260510035306 8 21 11.3 20.9 0.00 0.00 0.00 90 1015.8
20260510034304 8 40 11.3 20.9 0.00 0.00 0.00 90 1015.8
20260510033804 8 8 8.0 22.5 0.00 0.00 0.00 90 1015.8
20260510033305 8 16 8.0 20.9 0.00 0.00 0.00 90 1015.8
20260510032306 8 33 9.7 19.3 0.00 0.00 0.00 90 1015.9
20260510031304 9 38 6.4 16.1 0.00 0.00 0.00 90 1015.9
20260510030804 9 24 8.0 19.3 0.00 0.00 0.00 90 1015.9
20260510030304 9 32 8.0 16.1 0.00 0.00 0.00 90 1015.9
20260510025804 9 32 8.0 19.3 0.00 0.00 0.00 90 1015.9
20260510023805 9 48 8.0 19.3 0.00 0.00 0.00 89 1016.0
20260510022804 9 35 8.0 19.3 0.00 0.00 0.00 89 1016.0
20260510021304 10 23 8.0 16.1 0.00 0.00 0.00 88 1015.9
20260510020804 10 39 8.0 16.1 0.00 0.00 0.00 87 1015.9
20260510012804 10 53 6.4 14.5 0.00 0.00 0.00 82 1016.0
20260510011804 10 27 8.0 16.1 0.00 0.00 0.00 82 1016.0
20260510011304 10 58 8.0 19.3 0.00 0.00 0.00 82 1015.9
20260510010304 10 34 4.8 16.1 0.00 0.00 0.00 82 1016.0
20260510005306 10 43 8.0 19.3 0.00 0.00 0.00 81 1016.0
20260510004804 10 51 6.4 16.1 0.00 0.00 0.00 81 1016.0
20260510003304 10 45 8.0 16.1 0.00 0.00 0.00 79 1016.1
20260510002805 10 38 8.0 19.3 0.00 0.00 0.00 79 1016.1
20260510002306 10 41 8.0 19.3 0.00 0.00 0.00 78 1016.0
20260510001805 10 25 8.0 19.3 0.00 0.00 0.00 77 1016.0
20260510001304 10 46 8.0 16.1 0.00 0.00 0.00 76 1016.2
20260510000804 10 51 6.4 16.1 0.00 0.00 0.00 76 1016.2
20260510000304 10 46 8.0 16.1 0.00 0.00 0.00 75 1016.1
20260509234304 10 45 4.8 11.3 0.00 0.00 0.00 74 1016.1
20260509232804 11 41 3.2 16.1 0.00 0.00 0.00 73 1016.1
20260509232306 11 29 8.0 16.1 0.00 0.00 0.00 73 1016.3
20260509231805 11 12 4.8 12.9 0.00 0.00 0.00 73 1016.3
20260509230814 11 50 8.0 14.5 0.00 0.00 0.00 73 1016.3
20260509230305 11 357 6.4 14.5 0.00 0.00 0.00 73 1016.3
20260509225804 11 47 6.4 16.1 0.00 0.00 0.00 73 1016.3
20260509224804 11 42 6.4 16.1 0.00 0.00 0.00 71 1016.4
20260509223804 11 46 4.8 12.9 0.00 0.00 0.00 70 1016.4
20260509221804 11 47 6.4 14.5 0.00 0.00 0.00 68 1016.5
20260509221304 11 46 4.8 14.5 0.00 0.00 0.00 67 1016.4
20260509220804 11 43 4.8 14.5 0.00 0.00 0.00 67 1016.4
20260509220304 11 53 4.8 11.3 0.00 0.00 0.00 66 1016.4
20260509215306 11 13 6.4 14.5 0.00 0.00 0.00 65 1016.3
20260509214804 11 42 4.8 14.5 0.00 0.00 0.00 65 1016.3
20260509213804 11 35 4.8 12.9 0.00 0.00 0.00 64 1016.4
20260509212306 11 15 8.0 19.3 0.00 0.00 0.00 63 1016.2
20260509211304 11 32 8.0 16.1 0.00 0.00 0.00 63 1016.2
20260509210304 11 53 4.8 12.9 0.00 0.00 0.00 62 1016.2
20260509204304 11 36 6.4 14.5 0.00 0.00 0.00 61 1016.0
20260509202804 12 25 8.0 20.9 0.00 0.00 0.00 60 1015.9
20260509202306 12 45 6.4 16.1 0.00 0.00 0.00 60 1015.9
20260509201804 12 43 8.0 19.3 0.00 0.00 0.00 60 1015.9
20260509200804 12 37 8.0 16.1 0.00 0.03 0.00 62 1016.0
20260509200304 12 36 8.0 14.5 0.00 0.03 0.00 63 1015.9
20260509195804 12 14 6.4 14.5 0.00 0.03 0.00 62 1015.9
20260509194805 12 43 9.7 19.3 0.00 0.03 0.00 63 1015.9
20260509193305 13 36 6.4 19.3 0.00 0.03 0.00 63 1015.9
20260509192306 13 41 8.0 19.3 0.00 0.03 0.00 61 1015.7
20260509191304 13 50 9.7 22.5 0.00 0.03 0.00 61 1015.6
20260509190306 13 47 8.0 19.3 0.00 0.03 0.00 60 1015.5
20260509185804 13 42 6.4 19.3 0.00 0.03 0.00 59 1015.5
20260509183804 14 30 8.0 16.1 0.00 0.03 0.00 58 1015.4
20260509182804 15 36 6.4 19.3 0.00 0.03 0.00 58 1015.5
20260509182306 15 66 8.0 19.3 0.00 0.03 0.00 58 1015.5
20260509181304 15 42 6.4 14.5 0.00 0.03 0.00 59 1015.4
20260509180804 15 36 6.4 12.9 0.00 0.03 0.00 58 1015.4
20260509180304 15 58 8.0 16.1 0.00 0.03 0.00 58 1015.6
20260509175306 15 42 6.4 12.9 0.00 0.03 0.00 57 1015.7
20260509174805 15 53 8.0 19.3 0.00 0.03 0.00 56 1015.7
20260509174304 16 39 11.3 20.9 0.00 0.03 0.00 56 1015.4
20260509173804 16 47 6.4 19.3 0.00 0.03 0.00 57 1015.4
20260509173305 16 44 9.7 19.3 0.00 0.03 0.00 57 1015.2
20260509172804 16 48 8.0 14.5 0.00 0.03 0.00 56 1015.2
20260509172306 16 58 11.3 19.3 0.00 0.03 0.00 56 1015.2
20260509171304 17 50 8.0 25.7 0.00 0.03 0.00 57 1015.2
20260509170804 17 63 8.0 19.3 0.00 0.03 0.00 57 1015.2
20260509170304 17 62 4.8 14.5 0.00 0.03 0.00 57 1015.2
20260509164304 17 36 4.8 19.3 0.00 0.03 0.00 58 1015.3
20260509163804 17 39 8.0 19.3 0.00 0.03 0.00 58 1015.3
20260509163304 17 63 9.7 22.5 0.00 0.03 0.00 57 1015.3
20260509162804 17 39 9.7 24.1 0.00 0.03 0.00 57 1015.3
20260509161304 18 80 11.3 19.3 0.00 0.03 0.00 56 1015.3
20260509160304 18 16 8.0 16.1 0.00 0.03 0.00 56 1015.4
20260509155804 18 71 9.7 16.1 0.00 0.03 0.00 56 1015.4
20260509154804 18 45 9.7 20.9 0.00 0.03 0.00 56 1015.4
20260509153804 18 56 9.7 19.3 0.00 0.03 0.00 56 1015.5
20260509153304 18 51 11.3 19.3 0.00 0.03 0.00 56 1015.5
20260509152804 18 64 9.7 22.5 0.00 0.03 0.00 56 1015.5
20260509151804 18 36 9.7 19.3 0.00 0.03 0.00 55 1015.7
20260509151304 18 60 4.8 16.1 0.00 0.03 0.00 57 1015.7
20260509150304 18 57 9.7 22.5 0.00 0.03 0.00 56 1015.7
20260509144305 18 75 4.8 16.1 0.00 0.03 0.00 56 1015.5
20260509141804 18 87 9.7 20.9 0.00 0.03 0.00 56 1015.5
20260509141304 18 52 9.7 19.3 0.00 0.03 0.00 57 1015.3
20260509140804 18 35 6.4 22.5 0.00 0.03 0.00 57 1015.3
20260509134804 18 60 8.0 19.3 0.00 0.03 0.00 56 1015.4
20260509131804 18 27 8.0 20.9 0.00 0.03 0.00 57 1015.6
20260509131304 18 85 8.0 16.1 0.00 0.03 0.00 57 1015.6
20260509125307 18 58 9.7 20.9 0.00 0.03 0.00 58 1015.7
20260509124804 18 65 11.3 22.5 0.00 0.03 0.00 57 1015.7
20260509124304 18 49 9.7 19.3 0.00 0.03 0.00 57 1015.7
20260509123304 18 82 9.7 20.9 0.00 0.03 0.00 57 1015.9
20260509121304 18 101 8.0 19.3 0.00 0.03 0.00 54 1016.2
20260509115306 18 60 9.7 20.9 0.00 0.03 0.00 56 1016.3
20260509114804 18 78 8.0 16.1 0.00 0.03 0.00 57 1016.3
20260509113805 18 46 8.0 19.3 0.00 0.03 0.00 58 1016.3